Regional Weather Roundup
Issued by NWS

Home | Current Version | Previous Version | Graphics & Text | Print | Product List | Glossary On
Versions: 1 2 3 4 5 6 7 8 9 10 11 12 13 14 15 16 17 18 19 20 21 22 23 24 25 26 27 28 29 30 31 32 33 34 35 36 37 38 39 40 41 42 43 44 45 46 47 48 49 50
000
ASUS43 KFSD 270110
RWRSD

WEATHER ROUNDUP FOR SOUTH DAKOTA
NATIONAL WEATHER SERVICE SIOUX FALLS SD
700 PM CST FRI DEC 26 2014

NOTE: "FAIR" INDICATES FEW OR NO CLOUDS BELOW 12,000 FEET WITH NO
SIGNIFICANT WEATHER AND/OR OBSTRUCTIONS TO VISIBILITY.


SDZ001>005-009-010-012>017-270200-
NORTHWEST AND NORTH CENTRAL SOUTH DAKOTA

CITY           SKY/WX    TMP DP  RH WIND       PRES   REMARKS
BUFFALO          N/A     18  11  74 W5        30.03F WCI  11
FAITH            N/A     13   7  77 NW6       30.11F WCI   4
MOBRIDGE       PTCLDY    13   8  81 E9        30.14F WCI   1
$$

SDZ012>016-024>037-041>051-057-063-072>074-270200-
SOUTHWEST AND SOUTH CENTRAL SOUTH DAKOTA

CITY           SKY/WX    TMP DP  RH WIND       PRES   REMARKS
RAPID CTY ARPT CLOUDY    18  13  80 CALM      30.11R
PIERRE         CLOUDY    16  10  77 NE9       30.17R WCI   4
CUSTER         CLOUDY    11   8  88 S3        29.94R
ELLSWORTH AFB  CLOUDY    18  14  85 W2        30.10R
PHILIP         MOCLDY    13   7  77 NW5       30.17R WCI   5
PINE RIDGE     CLOUDY    18  12  77 NW3       30.10R
SPEARFISH      CLOUDY    18  14  86 W5        30.07S WCI  11
WINNER         FLURRIES  21  16  81 N13       30.14R WCI   9
$$

SDZ004>011-016>023-039-040-270200-
NORTHEAST SOUTH DAKOTA

CITY           SKY/WX    TMP DP  RH WIND       PRES   REMARKS
ABERDEEN       CLOUDY    17  12  80 N14       30.22R WCI   3
WATERTOWN      CLOUDY    20  17  88 N13       30.12R WCI   7
SISSETON         N/A     20  18  92 N14       30.18R WCI   7
$$

SDZ017-020-022-023-036>040-048>070-270200-
SOUTHEAST SOUTH DAKOTA

CITY           SKY/WX    TMP DP  RH WIND       PRES   REMARKS
SIOUX FALLS    LGT SNOW  23  20  88 N13       30.09S FOG     WCI  11
HURON          CLOUDY    21  17  84 N17       30.16S WCI   7
CHAMBERLAIN    CLOUDY    20  15  82 N10       30.16R WCI   8
MITCHELL       LGT SNOW  23  21  92 N16       30.16R FOG     WCI  10
YANKTON        CLOUDY    25  19  80 N17       30.11R WCI  11
$$

ABBREVIATIONS USED IN REMARKS
   TC - TEMPERATURE IN CELSIUS
  WCI - WIND CHILL INDEX
   HX - HEAT INDEX
  VSB - VISIBILITY




USA.gov is the U.S. government's official web portal to all federal, state and local government web resources and services.